Regional Weather Roundup
Issued by NWS Bismarck, ND

Home | Current Version | Previous Version | Text Only | Print | Product List | Glossary On
Versions: 1 2 3 4 5 6 7 8 9 10 11 12 13 14 15 16 17 18 19 20 21 22 23 24 25 26 27 28 29 30 31 32 33 34 35 36 37 38 39 40 41 42 43 44 45 46 47 48 49 50
000
ASUS43 KBIS 311320
RWRBIS

NWR BROADCAST TEXT
NATIONAL WEATHER SERVICE BISMARCK ND
800 AM CDT THU JUL 31 2014

NOTE: "FAIR" INDICATES FEW OR NO CLOUDS BELOW 12,000 FEET WITH NO
SIGNIFICANT WEATHER AND/OR OBSTRUCTIONS TO VISIBILITY.


CITY           SKY/WX    TMP DP  RH WIND       PRES   REMARKS
WILLISTON      CLOUDY    66  60  81 CALM      30.06F
MINOT          SUNNY     62  54  74 CALM      30.09R
MINOT AFB      SUNNY     61  60  97 W5        30.08S
BISMARCK       MOSUNNY   60  56  86 CALM      30.11R
DICKINSON      PTSUNNY   59  55  87 SE3       30.12F
GARRISON         N/A     61  59  93 N5        30.11R
HETTINGER ARPT PTSUNNY   59  55  87 NW6       30.16R
JAMESTOWN      SUNNY     63  57  81 NW3       30.08S
CARRINGTON     FAIR      61  61 100 W5        30.10
CROSBY           N/A     64  64 100 SW6       30.09R
HARVEY         FAIR      61  61 100 SW3       30.09S
HAZEN          FAIR      59  57  94 W5        30.12R
LINTON         PTSUNNY   59  57  94 CALM      30.11R
MANDAN         FAIR      59  57  94 CALM      30.12S
RUGBY          FAIR      63  59  88 CALM      30.08S
STANLEY        FAIR      61  61 100 CALM      30.11S
TIOGA          FAIR      61  61 100 CALM      30.12
WATFORD CITY   FAIR      64  59  82 SE3       30.07F
$$

CITY           SKY/WX    TMP DP  RH WIND       PRES   REMARKS
GRAND FORKS    SUNNY     63  60  90 W3        30.03S
GRAND FORKS AF SUNNY     65  64  95 W6        30.04F
DEVILS LAKE    SUNNY     64  57  77 W3        30.06S
FARGO          SUNNY     61  57  87 CALM      30.05R
CANDO          FAIR      59  57  94 CALM      30.08S
CAVALIER       FAIR      64  59  82 NW3       30.04S
GRAFTON        FAIR      64  59  82 NW5       30.03F
GWINNER        MOSUNNY   61  61 100 CALM      30.09S
LANGDON        FAIR      57  57 100 CALM      30.07S
ROLLA          FAIR      61  61 100 NW3       30.10R
WALHALLA         N/A     64  64 100 W3          N/A
$$

CITY           SKY/WX    TMP DP  RH WIND       PRES   REMARKS
ABERDEEN       MOSUNNY   63  57  81 CALM      30.08F
MOBRIDGE       SUNNY     63  55  75 E3        30.09R
BUFFALO          N/A     63  52  67 CALM      30.13R
RAPID CITY     SUNNY     62  48  60 NW6       30.17S
GLASGOW        MOSUNNY   68  48  48 SE14      30.06R
SIDNEY         CLOUDY    64  55  72 SW8       30.10S
WOLF POINT     MOSUNNY   69  49  48 SE3       30.08S
GLENDIVE       MOSUNNY   64  52  63 S8        30.14S
MILES CITY     SUNNY     66  48  52 SE7       30.13R
BAKER          MOSUNNY   61  53  75 SE3       30.18F
$$

CITY           SKY/WX    TMP DP  RH WIND       PRES   REMARKS
BILLINGS       PTCLDY    63  39  41 SW10      30.14S
GREAT FALLS    CLEAR     60  44  55 W6        30.14S
REGINA         MOSUNNY   63  57  82 SE9       30.07S
ESTEVAN        MOSUNNY   59  57  94 SE5       30.09S
$$



USA.gov is the U.S. government's official web portal to all federal, state and local government web resources and services.